Volver al catálogo

STARLINK-3854

ActivoComunicacionesVLEO
NORAD 52648·PAYLOAD·🇺🇸 United States

Lanzado May 14, 2022 desde Cape Canaveral Space Force Station

Loading…

Próximos Pases (próximas 24 horas)

TLE

ActualizadoSource: CelesTrak SupGP

Época: Sep 15, 2026, 01:49 UTC

1 52648C 22052BC  26258.07618056  .00036017  00000+0  10929-2 0  2589
2 52648  53.1570 117.2614 0001378  84.0540  53.4562 15.33530162    15

Sigue STARLINK-3854 en tiempo real con AllMySat

Download on the App Store